CW2305 Weather Reports


time (UTC)temp
C
wind
direction
speed
KPH
gust
KPH
rain 1hr
cm
rain 24hr
cm
rain mn
cm
humidity
%
barometer
mb
20260505200019 11 351 1.6 14.5 0.00 0.00 0.00 72 1014.8
20260505195506 11 41 3.2 16.1 0.00 0.00 0.00 70 1014.6
20260505195006 11 360 4.8 16.1 0.00 0.00 0.00 67 1014.6
20260505194516 11 360 0.0 8.0 0.00 0.00 0.00 64 1014.5
20260505194011 11 321 0.0 8.0 0.00 0.00 0.00 63 1014.4
20260505193506 11 18 3.2 8.0 0.00 0.00 0.00 63 1014.4
20260505193015 11 9 1.6 8.0 0.00 0.00 0.00 64 1014.4
20260505192509 11 63 1.6 6.4 0.00 0.00 0.00 64 1014.3
20260505192006 11 44 0.0 8.0 0.00 0.00 0.00 64 1014.4
20260505191518 11 36 0.0 8.0 0.00 0.00 0.00 64 1014.3
20260505191008 11 9 1.6 6.4 0.00 0.00 0.00 63 1014.2
20260505190506 11 332 3.2 8.0 0.00 0.00 0.00 63 1014.2
20260505190018 12 58 1.6 8.0 0.00 0.00 0.00 63 1014.2
20260505185510 12 332 3.2 8.0 0.00 0.00 0.00 62 1014.1
20260505185006 12 352 1.6 6.4 0.00 0.00 0.00 63 1014.0
20260505184520 12 304 1.6 6.4 0.00 0.00 0.00 62 1014.0
20260505184008 12 352 0.0 9.7 0.00 0.00 0.00 61 1014.0
20260505183506 12 269 1.6 9.7 0.00 0.00 0.00 61 1014.0
20260505183017 12 301 3.2 8.0 0.00 0.00 0.00 60 1013.9
20260505182509 12 336 1.6 8.0 0.00 0.00 0.00 60 1013.9
20260505182007 12 299 0.0 8.0 0.00 0.00 0.00 62 1013.9
20260505181517 12 45 0.0 8.0 0.00 0.00 0.00 61 1013.9
20260505181006 12 307 3.2 8.0 0.00 0.00 0.00 62 1013.9
20260505180509 12 60 0.0 8.0 0.00 0.00 0.00 63 1013.8
20260505180039 12 306 3.2 9.7 0.00 0.00 0.00 63 1013.8
20260505175507 12 5 3.2 9.7 0.00 0.00 0.00 62 1013.9
20260505175006 12 24 1.6 12.9 0.00 0.00 0.00 62 1013.9
20260505174518 12 12 1.6 16.1 0.00 0.00 0.00 61 1013.9
20260505174011 12 32 3.2 16.1 0.00 0.00 0.00 61 1013.9
20260505173506 12 43 3.2 6.4 0.00 0.00 0.00 60 1013.9
20260505173019 13 325 0.0 9.7 0.00 0.00 0.00 61 1013.9
20260505172515 12 64 1.6 9.7 0.00 0.00 0.00 60 1013.9
20260505172014 12 57 1.6 8.0 0.00 0.00 0.00 61 1013.9
20260505171520 12 13 3.2 8.0 0.00 0.00 0.00 59 1014.0
20260505171014 12 15 1.6 16.1 0.00 0.00 0.00 60 1014.1
20260505170510 12 40 0.0 16.1 0.00 0.00 0.00 61 1014.1
20260505170022 13 5 4.8 16.1 0.00 0.00 0.00 59 1014.1
20260505165507 13 309 3.2 12.9 0.00 0.00 0.00 58 1014.1
20260505165008 13 340 1.6 12.9 0.00 0.00 0.00 59 1014.0
20260505164519 13 25 3.2 11.3 0.00 0.00 0.00 58 1014.0
20260505164007 13 327 3.2 12.9 0.00 0.00 0.00 59 1014.0
20260505163509 13 346 4.8 12.9 0.00 0.00 0.00 58 1014.0
20260505163019 13 348 3.2 9.7 0.00 0.00 0.00 59 1014.0
20260505162506 13 320 1.6 11.3 0.00 0.00 0.00 59 1013.9
20260505162007 13 25 3.2 11.3 0.00 0.00 0.00 59 1013.9
20260505161522 13 352 1.6 8.0 0.00 0.00 0.00 61 1013.9
20260505161006 13 321 3.2 8.0 0.00 0.00 0.00 59 1014.0
20260505160507 13 13 1.6 8.0 0.00 0.00 0.00 60 1014.0
20260505153021 13 9 1.6 9.7 0.00 0.00 0.00 58 1014.0
20260505152511 13 42 3.2 9.7 0.00 0.00 0.00 56 1014.1
20260505152011 14 288 0.0 8.0 0.00 0.00 0.00 54 1014.1
20260505151521 14 352 1.6 4.8 0.00 0.00 0.00 54 1014.0
20260505151010 14 40 0.0 4.8 0.00 0.00 0.00 55 1014.0
20260505150507 14 42 0.0 12.9 0.00 0.00 0.00 53 1014.0
20260505140507 14 19 3.2 12.9 0.00 0.00 0.00 54 1014.2
20260505125009 16 280 4.8 16.1 0.00 0.00 0.00 48 1014.3
20260505124526 16 336 3.2 6.4 0.00 0.00 0.00 50 1014.3
20260505124010 15 13 3.2 17.7 0.00 0.00 0.00 49 1014.2
20260505123512 15 39 4.8 17.7 0.00 0.00 0.00 53 1014.3
20260505123032 15 15 3.2 11.3 0.00 0.00 0.00 55 1014.3
20260505122508 14 335 4.8 11.3 0.00 0.00 0.00 55 1014.4
20260505122009 13 352 1.6 8.0 0.00 0.00 0.00 57 1014.5
20260505121526 13 84 3.2 8.0 0.00 0.00 0.00 56 1014.5
20260505121009 14 12 3.2 11.3 0.00 0.00 0.00 54 1014.5
20260505120506 14 348 1.6 11.3 0.00 0.00 0.00 55 1014.5
20260505120027 15 23 1.6 11.3 0.00 0.00 0.00 55 1014.6
20260505115509 14 5 3.2 9.7 0.00 0.00 0.00 56 1014.6
20260505115006 14 281 3.2 9.7 0.00 0.00 0.00 56 1014.6
20260505114517 14 94 1.6 6.4 0.00 0.00 0.00 56 1014.6
20260505114010 14 313 1.6 17.7 0.00 0.00 0.00 58 1014.6
20260505113512 14 9 3.2 17.7 0.00 0.00 0.00 58 1014.6
20260505113004 14 11 3.2 14.5 0.00 0.00 0.00 59 1014.6
20260505112503 14 296 4.8 12.9 0.00 0.00 0.00 58 1014.6
20260505112003 15 55 3.2 12.9 0.00 0.00 0.00 57 1014.6
20260505111516 15 242 1.6 12.9 0.00 0.00 0.00 57 1014.5
20260505111004 15 67 1.6 16.1 0.00 0.00 0.00 59 1014.5
20260505110503 15 304 3.2 16.1 0.00 0.00 0.00 55 1014.5
20260505102006 12 19 3.2 14.5 0.00 0.00 0.00 62 1015.0
20260505101514 12 338 3.2 14.5 0.00 0.00 0.00 60 1015.0
20260505101004 13 306 4.8 14.5 0.00 0.00 0.00 60 1014.9
20260505100504 13 38 1.6 14.5 0.00 0.00 0.00 58 1014.9
20260505100021 13 352 4.8 14.5 0.00 0.00 0.00 59 1014.9
20260505095504 13 19 4.8 14.5 0.00 0.00 0.00 59 1014.9
20260505095004 13 26 3.2 11.3 0.00 0.00 0.00 58 1014.8
20260505094512 13 41 1.6 9.7 0.00 0.00 0.00 59 1014.9
20260505094008 13 346 1.6 11.3 0.00 0.00 0.00 58 1014.9
20260505093507 13 59 1.6 17.7 0.00 0.00 0.00 55 1015.0
20260505093022 14 344 4.8 17.7 0.00 0.00 0.00 53 1015.0
20260505092509 14 342 4.8 14.5 0.00 0.00 0.00 60 1014.9
20260505092006 13 352 4.8 14.5 0.00 0.00 0.00 59 1014.9
20260505091521 13 58 3.2 14.5 0.00 0.00 0.00 61 1014.9
20260505091012 13 73 3.2 16.1 0.00 0.00 0.00 62 1014.9
20260505090503 13 311 3.2 19.3 0.00 0.00 0.00 58 1015.0
20260505090008 14 46 6.4 19.3 0.00 0.00 0.00 59 1015.0
20260505085011 13 291 1.6 8.0 0.00 0.00 0.00 63 1014.9
20260505084528 13 303 1.6 8.0 0.00 0.00 0.00 63 1014.9
20260505084011 13 352 3.2 9.7 0.00 0.00 0.00 64 1014.9
20260505083507 13 42 3.2 9.7 0.00 0.00 0.00 67 1015.0
20260505083025 12 294 3.2 12.9 0.00 0.00 0.00 66 1015.0
20260505082511 12 63 3.2 12.9 0.00 0.00 0.00 66 1015.0
20260505082009 12 21 1.6 12.9 0.00 0.00 0.00 71 1015.0
20260505081527 11 38 3.2 9.7 0.00 0.00 0.00 72 1015.2
20260505081008 11 296 1.6 12.9 0.00 0.00 0.00 73 1015.2
20260505080507 11 327 3.2 12.9 0.00 0.00 0.00 72 1015.3
20260505080024 11 315 1.6 9.7 0.00 0.00 0.00 74 1015.3
20260505075510 10 325 3.2 9.7 0.00 0.00 0.00 75 1015.3
20260505075010 10 20 3.2 9.7 0.00 0.00 0.00 75 1015.2
20260505074527 10 360 1.6 8.0 0.00 0.00 0.00 77 1015.2
20260505074012 10 360 1.6 19.3 0.00 0.00 0.00 78 1015.2
20260505073507 10 360 1.6 19.3 0.00 0.00 0.00 79 1015.3
20260505073036 10 360 3.2 12.9 0.00 0.00 0.00 78 1015.3
20260505072511 10 360 1.6 12.9 0.00 0.00 0.00 80 1015.2
20260505072009 9 360 3.2 12.9 0.00 0.00 0.00 81 1015.2
20260505071526 9 360 0.0 8.0 0.00 0.00 0.00 81 1015.2
20260505071010 9 360 1.6 8.0 0.00 0.00 0.00 82 1015.1
20260505070512 9 360 3.2 8.0 0.00 0.00 0.00 82 1015.2
20260505070022 8 360 3.2 12.9 0.00 0.00 0.00 83 1015.2
20260505065509 8 360 3.2 12.9 0.00 0.00 0.00 85 1015.3
20260505065009 8 360 3.2 8.0 0.00 0.00 0.00 86 1015.3
20260505064524 8 360 1.6 8.0 0.00 0.00 0.00 88 1015.3
20260505064010 8 360 1.6 6.4 0.00 0.00 0.00 88 1015.5
20260505063510 7 360 1.6 6.4 0.00 0.00 0.00 89 1015.4
20260505063028 7 360 0.0 9.7 0.00 0.00 0.00 90 1015.4
20260505062511 7 360 1.6 9.7 0.00 0.00 0.00 90 1015.4
20260505062012 7 360 1.6 4.8 0.00 0.00 0.00 90 1015.4
20260505061533 7 360 1.6 4.8 0.00 0.00 0.00 91 1015.4
20260505061006 7 360 0.0 4.8 0.00 0.00 0.00 91 1015.3
20260505060513 6 360 1.6 6.4 0.00 0.00 0.00 91 1015.3
20260505060026 6 360 3.2 6.4 0.00 0.00 0.00 91 1015.3
20260505055513 6 360 0.0 4.8 0.00 0.00 0.00 91 1015.3
20260505055017 6 360 1.6 4.8 0.00 0.00 0.00 91 1015.3
20260505054523 6 360 0.0 6.4 0.00 0.00 0.00 92 1015.3
20260505054014 6 360 0.0 6.4 0.00 0.00 0.00 92 1015.3
20260505053513 6 360 0.0 1.6 0.00 0.00 0.00 91 1015.2
20260505053014 6 360 0.0 3.2 0.00 0.00 0.00 91 1015.2
20260505052507 6 360 0.0 3.2 0.00 0.00 0.00 91 1015.3
20260505052009 6 360 0.0 1.6 0.00 0.00 0.00 91 1015.3
20260505051530 6 360 0.0 3.2 0.00 0.00 0.00 90 1015.3
20260505051007 6 360 0.0 4.8 0.00 0.00 0.00 91 1015.2
20260505050507 6 360 0.0 4.8 0.00 0.00 0.00 91 1015.2
20260505041511 6 360 0.0 4.8 0.00 0.00 0.00 90 1015.0
20260505041013 6 360 0.0 3.2 0.00 0.00 0.00 90 1014.9
20260505040510 6 360 0.0 3.2 0.00 0.00 0.00 89 1014.9
20260505040016 6 360 0.0 4.8 0.00 0.00 0.00 89 1014.9
20260505035510 6 360 0.0 4.8 0.00 0.00 0.00 89 1014.9
20260505035008 6 360 0.0 3.2 0.00 0.00 0.00 89 1014.9
20260505034523 6 360 0.0 3.2 0.00 0.00 0.00 89 1014.8
20260505034010 6 360 0.0 3.2 0.00 0.00 0.00 89 1014.8
20260505033507 6 360 0.0 0.0 0.00 0.00 0.00 89 1014.8
20260505033023 6 360 0.0 6.4 0.00 0.00 0.00 89 1014.9
20260505032509 6 360 1.6 8.0 0.00 0.00 0.00 89 1014.9
20260505032010 6 360 1.6 8.0 0.00 0.00 0.00 89 1014.9
20260505031535 6 360 0.0 8.0 0.00 0.00 0.00 90 1014.9
20260505031013 6 360 0.0 6.4 0.00 0.00 0.00 90 1015.0
20260505030507 6 360 0.0 6.4 0.00 0.00 0.00 90 1015.0
20260505030016 6 360 1.6 6.4 0.00 0.00 0.00 91 1014.9
20260505025507 6 360 0.0 4.8 0.00 0.00 0.00 91 1014.9
20260505025006 6 360 0.0 6.4 0.00 0.00 0.00 91 1014.8
20260505024521 6 360 0.0 6.4 0.00 0.00 0.00 92 1014.9
20260505024008 6 360 0.0 3.2 0.00 0.00 0.00 92 1014.9
20260505023506 6 360 0.0 6.4 0.00 0.00 0.00 93 1014.9
20260505023022 6 360 0.0 6.4 0.00 0.00 0.00 93 1015.0
20260505022507 6 360 1.6 3.2 0.00 0.00 0.00 94 1015.0
20260505022012 6 360 0.0 6.4 0.00 0.00 0.00 94 1015.1
20260505021529 6 360 0.0 6.4 0.00 0.00 0.00 95 1015.1
20260505021012 6 360 0.0 3.2 0.00 0.00 0.00 94 1015.1
20260505020506 6 360 0.0 0.0 0.00 0.00 0.00 94 1015.0
20260505020031 5 360 0.0 0.0 0.00 0.00 0.00 93 1015.1
20260505015508 5 360 0.0 0.0 0.00 0.00 0.00 92 1015.1
20260505015007 6 360 0.0 0.0 0.00 0.00 0.00 93 1015.1
20260505014516 6 360 0.0 0.0 0.00 0.00 0.00 93 1015.1
20260505014006 6 360 0.0 0.0 0.00 0.00 0.00 92 1015.1
20260505013506 6 360 0.0 0.0 0.00 0.00 0.00 92 1015.2
20260505013028 6 360 0.0 0.0 0.00 0.00 0.00 92 1015.3
20260505012506 6 360 0.0 0.0 0.00 0.00 0.00 92 1015.2
20260505012011 6 360 0.0 0.0 0.00 0.00 0.00 93 1015.3
20260505011532 6 360 0.0 0.0 0.00 0.00 0.00 92 1015.4
20260505011008 6 360 0.0 0.0 0.00 0.00 0.00 92 1015.4
20260505010511 6 360 0.0 0.0 0.00 0.00 0.00 92 1015.5
20260505010045 6 360 0.0 0.0 0.00 0.00 0.00 92 1015.5
20260505005507 6 360 0.0 0.0 0.00 0.00 0.00 92 1015.5
20260505005007 6 360 0.0 0.0 0.00 0.00 0.00 92 1015.5
20260505004528 6 360 0.0 0.0 0.00 0.00 0.00 92 1015.5
20260505004006 6 360 0.0 0.0 0.00 0.00 0.00 92 1015.7
20260505003508 7 360 0.0 0.0 0.00 0.00 0.00 92 1015.7
20260505003021 7 360 0.0 0.0 0.00 0.00 0.00 92 1015.8
20260505002510 7 360 0.0 0.0 0.00 0.00 0.00 92 1015.8
20260505002010 7 360 0.0 0.0 0.00 0.00 0.00 92 1015.8
20260505001524 7 360 0.0 0.0 0.00 0.00 0.00 92 1015.9
20260505001009 7 360 0.0 0.0 0.00 0.00 0.00 93 1015.9
20260505000509 7 360 0.0 0.0 0.00 0.00 0.00 93 1015.9
20260505000040 7 360 0.0 0.0 0.00 0.00 0.00 93 1015.9
20260504235506 7 360 0.0 0.0 0.00 0.00 0.00 94 1016.0
20260504235007 7 360 0.0 0.0 0.00 0.00 0.00 93 1016.0
20260504234514 7 360 0.0 0.0 0.00 0.00 0.00 93 1016.1
20260504234006 6 360 0.0 0.0 0.00 0.00 0.00 92 1016.1
20260504233506 6 360 0.0 0.0 0.00 0.00 0.00 91 1016.1
20260504233017 6 360 0.0 0.0 0.00 0.00 0.00 91 1016.1
20260504232505 6 360 0.0 0.0 0.00 0.00 0.00 91 1016.1
20260504232008 7 360 0.0 0.0 0.00 0.00 0.00 91 1016.1
20260504231524 7 360 0.0 0.0 0.00 0.00 0.00 91 1016.1
20260504231006 7 360 0.0 0.0 0.00 0.00 0.00 91 1016.1
20260504230509 7 360 0.0 0.0 0.00 0.00 0.00 91 1016.2
20260504230038 7 360 0.0 0.0 0.00 0.00 0.00 90 1016.2
20260504225508 7 360 0.0 0.0 0.00 0.00 0.00 89 1016.2
20260504225006 7 360 0.0 0.0 0.00 0.00 0.00 89 1016.3
20260504224527 7 360 0.0 0.0 0.00 0.00 0.00 88 1016.3
20260504224003 7 360 0.0 0.0 0.00 0.00 0.00 87 1016.3
20260504223506 7 360 0.0 0.0 0.00 0.00 0.00 87 1016.3
20260504223014 7 360 0.0 0.0 0.00 0.00 0.00 87 1016.3
20260504222507 8 360 0.0 0.0 0.00 0.00 0.00 87 1016.3
20260504222007 8 360 0.0 0.0 0.00 0.00 0.00 87 1016.4
20260504221538 8 360 0.0 0.0 0.00 0.00 0.00 87 1016.3
20260504221012 8 360 0.0 0.0 0.00 0.00 0.00 87 1016.3
20260504220508 8 360 0.0 0.0 0.00 0.00 0.00 87 1016.3
20260504220023 9 360 0.0 0.0 0.00 0.00 0.00 86 1016.3
20260504215512 9 360 0.0 0.0 0.00 0.00 0.00 84 1016.3
20260504215011 9 360 0.0 0.0 0.00 0.00 0.00 85 1016.3
20260504214526 10 360 0.0 0.0 0.00 0.00 0.00 84 1016.3
20260504214007 10 360 0.0 0.0 0.00 0.00 0.00 85 1016.3
20260504213507 10 360 0.0 0.0 0.00 0.00 0.00 85 1016.3
20260504213012 10 360 0.0 0.0 0.00 0.00 0.00 85 1016.3
20260504212504 10 360 0.0 0.0 0.00 0.00 0.00 85 1016.4
20260504212009 10 360 0.0 0.0 0.00 0.00 0.00 85 1016.4
20260504211516 10 360 0.0 0.0 0.00 0.00 0.00 85 1016.4
20260504211007 10 360 0.0 0.0 0.00 0.00 0.00 84 1016.3
20260504210508 10 360 0.0 0.0 0.00 0.00 0.00 84 1016.4
20260504210023 10 360 0.0 0.0 0.00 0.00 0.00 84 1016.5
20260504205508 10 360 0.0 0.0 0.00 0.00 0.00 83 1016.5
20260504205008 10 360 0.0 0.0 0.00 0.00 0.00 83 1016.4
20260504204528 10 360 0.0 0.0 0.00 0.00 0.00 83 1016.5
20260504204008 10 360 0.0 0.0 0.00 0.00 0.00 83 1016.4
20260504203510 11 360 0.0 0.0 0.00 0.00 0.00 82 1016.4
20260504203040 11 360 0.0 0.0 0.00 0.00 0.00 82 1016.4
20260504202512 11 29 0.0 0.0 0.00 0.00 0.00 82 1016.4
20260504202007 11 29 0.0 0.0 0.00 0.00 0.00 81 1016.4
20260504201516 11 352 0.0 0.0 0.00 0.00 0.00 81 1016.4
20260504201008 11 352 0.0 0.0 0.00 0.00 0.00 81 1016.4
20260504200511 11 344 0.0 0.0 0.00 0.00 0.00 81 1016.3